BCS776 HTKJ-SKMZ

Flight info

Callsign BCS776
Flight time N/A
Altitude 28000
Route AVATU2D AVATU UB531 KGI UL434 ERKAR/N0510F300 UL434 NLY UR984 DLA UP685 LIREX UY57 XUMGA/N0505F320 UY57 SESIG UR979 AD UB600 ROB UY366 SOLTU DCT 06N018W 06N023W DCT IRAKU/N0496F340 DCT 06N031W DCT EGIMI UL695 ARUSI DCT 06N041W 07N045W DCT KONTI CR10 CYR/N0489F360 UG443 TIM UP549 BNS UP533 KIKAS UW44 BUV DCT NIRSO NIRSO1B
Aircraft B77L/H-SDE1E2E3FGHIJ2J3J4J5M1RWXY/LB1D1

Departure

Time N/A
Airport Kilimanjaro International Airport (HTKJ)

Arrival

Time 2026-05-05 12:54
Airport La Nubia Airport (SKMZ)
Time Latitude Longitude Altitude Speed Heading
2026-05-05 12:30 5.88913 -73.40639 36152 ft 505 kts 231°
2026-05-05 12:30 5.86733 -73.43405 36150 ft 506 kts 231°
2026-05-05 12:30 5.82368 -73.48941 36177 ft 505 kts 231°
2026-05-05 12:31 5.78003 -73.54475 36171 ft 505 kts 231°
2026-05-05 12:31 5.73645 -73.60000 36179 ft 504 kts 231°
2026-05-05 12:32 5.69287 -73.65522 36193 ft 505 kts 231°
2026-05-05 12:32 5.64927 -73.71046 36182 ft 504 kts 231°
2026-05-05 12:33 5.60609 -73.76517 36189 ft 503 kts 231°
2026-05-05 12:33 5.56285 -73.82031 36151 ft 503 kts 234°
2026-05-05 12:34 5.53188 -73.88272 36205 ft 502 kts 252°
2026-05-05 12:34 5.51900 -73.95144 36160 ft 502 kts 264°
2026-05-05 12:35 5.51141 -74.02116 36166 ft 502 kts 264°
2026-05-05 12:35 5.50355 -74.09082 36133 ft 503 kts 263°
2026-05-05 12:36 5.49515 -74.16054 36125 ft 503 kts 263°
2026-05-05 12:36 5.48658 -74.23016 36095 ft 503 kts 263°
2026-05-05 12:37 5.47796 -74.29996 36096 ft 504 kts 263°
2026-05-05 12:37 5.46936 -74.36979 36071 ft 504 kts 263°
2026-05-05 12:38 5.46078 -74.43957 36079 ft 504 kts 263°
2026-05-05 12:38 5.45647 -74.47455 35795 ft 508 kts 263°
2026-05-05 12:38 5.45207 -74.51025 34780 ft 519 kts 263°
2026-05-05 12:39 5.44763 -74.54628 33847 ft 521 kts 263°
2026-05-05 12:39 5.44318 -74.58239 32804 ft 522 kts 263°
2026-05-05 12:39 5.43871 -74.61858 31812 ft 523 kts 263°
2026-05-05 12:39 5.43424 -74.65478 30831 ft 523 kts 263°
2026-05-05 12:40 5.42979 -74.69084 30130 ft 517 kts 263°
2026-05-05 12:40 5.42538 -74.72651 29309 ft 512 kts 263°
2026-05-05 12:40 5.42101 -74.76178 28582 ft 506 kts 263°
2026-05-05 12:40 5.41670 -74.79660 27914 ft 501 kts 263°
2026-05-05 12:41 5.41243 -74.83112 27251 ft 495 kts 263°
2026-05-05 12:41 5.40820 -74.86525 26609 ft 491 kts 263°
2026-05-05 12:41 5.40406 -74.89863 25978 ft 486 kts 263°
2026-05-05 12:41 5.39990 -74.93215 25337 ft 483 kts 264°
2026-05-05 12:42 5.39573 -74.96578 24694 ft 473 kts 264°
2026-05-05 12:42 5.39180 -74.99747 24100 ft 455 kts 264°
2026-05-05 12:42 5.38789 -75.02883 23580 ft 442 kts 264°
2026-05-05 12:42 5.38578 -75.04586 23212 ft 442 kts 264°
2026-05-05 12:43 5.38228 -75.07417 22770 ft 443 kts 264°
2026-05-05 12:43 5.37847 -75.10500 22180 ft 449 kts 264°
2026-05-05 12:43 5.37459 -75.13629 21598 ft 454 kts 263°
2026-05-05 12:43 5.37195 -75.15749 21196 ft 454 kts 263°
2026-05-05 12:44 5.36805 -75.18883 20599 ft 451 kts 263°
2026-05-05 12:44 5.36418 -75.22002 20011 ft 450 kts 263°
2026-05-05 12:44 5.35906 -75.26116 19235 ft 448 kts 263°
2026-05-05 12:44 5.35520 -75.29213 18639 ft 446 kts 263°
2026-05-05 12:45 5.35137 -75.32284 18080 ft 441 kts 262°
2026-05-05 12:45 5.34880 -75.34332 17779 ft 434 kts 262°
2026-05-05 12:45 5.33695 -75.38064 16826 ft 424 kts 236°
2026-05-05 12:45 5.32518 -75.39616 16439 ft 420 kts 225°
2026-05-05 12:46 5.30315 -75.41535 16021 ft 410 kts 211°
2026-05-05 12:46 5.27852 -75.42829 15542 ft 401 kts 201°
2026-05-05 12:46 5.25270 -75.43939 14970 ft 393 kts 204°
2026-05-05 12:46 5.23154 -75.45543 14680 ft 371 kts 229°
2026-05-05 12:47 5.22037 -75.47749 14437 ft 346 kts 255°
2026-05-05 12:47 5.21828 -75.50076 14013 ft 339 kts 271°
2026-05-05 12:47 5.21987 -75.52428 13650 ft 330 kts 273°
2026-05-05 12:47 5.22037 -75.54718 13291 ft 326 kts 265°
2026-05-05 12:48 5.21751 -75.56946 12982 ft 320 kts 256°
2026-05-05 12:48 5.21104 -75.59058 12621 ft 315 kts 246°
2026-05-05 12:48 5.20160 -75.61001 12229 ft 313 kts 238°
2026-05-05 12:48 5.18965 -75.62809 11859 ft 309 kts 231°
2026-05-05 12:49 5.17598 -75.64425 11574 ft 287 kts 224°
2026-05-05 12:49 5.16160 -75.65701 11201 ft 268 kts 208°
2026-05-05 12:49 5.14478 -75.66158 10871 ft 247 kts 172°
2026-05-05 12:49 5.12934 -75.65539 10596 ft 235 kts 135°
2026-05-05 12:50 5.12009 -75.64235 10445 ft 231 kts 120°
2026-05-05 12:50 5.11177 -75.62822 10143 ft 238 kts 120°
2026-05-05 12:50 5.10352 -75.61411 9829 ft 234 kts 120°
2026-05-05 12:50 5.09550 -75.60027 9535 ft 227 kts 120°
2026-05-05 12:51 5.08752 -75.58659 9231 ft 221 kts 120°
2026-05-05 12:51 5.08004 -75.57377 8974 ft 203 kts 120°
2026-05-05 12:51 5.07320 -75.56205 8668 ft 187 kts 120°
2026-05-05 12:51 5.06678 -75.55104 8444 ft 181 kts 120°
2026-05-05 12:52 5.06044 -75.54017 8208 ft 180 kts 120°
2026-05-05 12:52 5.05432 -75.52968 8007 ft 166 kts 118°
2026-05-05 12:52 5.04910 -75.52009 7881 ft 153 kts 118°
2026-05-05 12:52 5.04386 -75.51064 7820 ft 156 kts 119°
2026-05-05 12:53 5.03862 -75.50128 7728 ft 152 kts 118°
2026-05-05 12:53 5.03376 -75.49214 7296 ft 147 kts 114°
2026-05-05 12:53 5.03139 -75.48234 6972 ft 151 kts 95°
2026-05-05 12:53 5.03055 -75.47150 6799 ft 155 kts 97°
2026-05-05 12:54 5.02950 -75.45936 6949 ft 18 kts 103°
2026-05-05 12:54 5.02939 -75.45901 6956 ft 0 kts 108°
2026-05-05 12:55 5.02939 -75.45898 6956 ft 1 kts 105°
2026-05-05 12:55 5.02941 -75.45891 6955 ft 1 kts 74°
2026-05-05 12:55 5.02951 -75.45886 6957 ft 3 kts 17°
2026-05-05 12:56 5.02965 -75.45931 6949 ft 15 kts 271°
2026-05-05 12:56 5.02970 -75.46077 6934 ft 27 kts 272°
2026-05-05 12:56 5.02985 -75.46305 6881 ft 35 kts 275°
2026-05-05 12:56 5.03001 -75.46511 6840 ft 22 kts 274°
2026-05-05 12:57 5.03013 -75.46657 6821 ft 23 kts 275°
2026-05-05 12:57 5.03018 -75.46775 6808 ft 15 kts 258°
2026-05-05 12:57 5.02989 -75.46828 6805 ft 3 kts 234°
2026-05-05 12:57 5.02984 -75.46834 6805 ft 2 kts 229°
2026-05-05 12:58 5.02965 -75.46847 6805 ft 4 kts 211°
2026-05-05 12:58 5.02944 -75.46855 6805 ft 2 kts 187°
2026-05-05 12:58 5.02933 -75.46855 6805 ft 0 kts 180°